SCP
-0 -0 -0 -0 -0 -0 -0 -0 -0 -0 -0 -0 -0 -0 -0 -0 -0 -0 -0 -0 -0 -0 0 0 0 0 0 0 0 0 0 0 0 0 0 0 0 0 0 0 0 0 0 0 0 0 0
0 -0 -0 -0 -0 -0 -0 -0 -0 -0 -0 -0 -0 -0 -0 -0 -0 -0 -0 -0 -0 -0 0 0 0 0 0 0 0 0 0 0 0 0 0 0 0 0 0 0 0 0 0 0 0 0 0
0 0 -0 -0 -0 -0 -0 -0 -0 -0 -0 -0 -0 -0 -0 -0 -0 -0 -0 -0 -0 -0 0 0 0 0 0 0 0 0 0 0 0 0 0 0 0 0 0 0 0 0 0 0 0 0 0
0 -0 -0 -0 -0 -0 -0 -0 -0 -0 -0 -0 -0 -0 -0 -0 -0 -0 -0 -0 -0 -0 0 0 0 0 0 -0 -0 0 0 0 0 0 0 0 0 0 0 0 0 0 0 0 0 0 0
0 0 0 0 -0 -0 -0 -0 -0 -0 -0 -0 -0 -0 -0 -0 -0 -0 -0 -0 0 0 0 0 0 0 0 0 0 -0 0 0 0 0 0 0 0 0 0 0 0 0 0 0 0 0 0
0 0 0 0 0 0 -0 -0 -0 -0 -0 -0 -0 -0 -0 -0 -0 -0 -0 0 0 0 0 0 0 0 0 0 0 0 0 0 0 0 0 0 0 0 0 0 0 0 0 0 0 0 0
0 0 0 0 0 0 0 -0 -0 -0 -0 -0 -0 -0 -0 -0 -0 -0 0 0 0 0 0 0 0 0 0 0 0 0 0 0 0 0 0 0 0 0 -0 0 0 0 0 0 0 0 0
0 0 0 0 0 0 0 0 0 -0 -0 -0 -0 -0 -0 -0 -0 -0 0 0 0 0 0 0 0 0 0 0 0 0 0 0 0 0 0 0 0 0 0 0 0 0 0 0 0 0 0
0 0 0 0 0 0 0 0 0 0 0 0 -0 -0 -0 -0 -0 0 0 0 0 0 0 0 0 0 0 0 0 0 0 0 0 0 0 0 0 0 0 0 0 0 0 0 0 0 0
0 0 0 0 0 0 0 0 0 0 0 0 0 0 -0 -0 0 0 0 0 0 0 0 0 0 0 0 0 0 -0 0 0 0 0 0 0 0 0 0 0 0 0 0 0 0 0 0
0 0 0 0 0 0 0 0 0 0 0 0 0 0 0 0 0 0 0 0 0 0 0 0 0 0 0 0 0 0 0 0 0 0 0 0 0 0 0 0 0 0 0 0 0 0 0
0 0 0 0 0 0 0 0 0 0 0 0 0 0 0 0 0 0 0 0 0 0 0 0 0 0 0 0 0 0 0 0 0 0 0 0 0 0 0 0 0 0 0 0 0 0 0
0 0 0 0 0 0 0 0 0 0 0 0 0 0 0 0 0 0 0 0 0 0 0 0 0 0 0 0 0 0 0 0 0 0 0 0 0 0 0 0 0 0 0 0 0 0 0
0 0 0 0 0 0 0 0 0 0 0 0 0 0 0 0 0 0 0 0 0 0 0 0 0 0 0 0 0 0 0 0 0 0 0 0 0 0 0 0 0 0 0 0 0 0 0
0 0 0 0 0 0 0 0 0 0 0 -0 0 0 0 0 0 0 0 0 0 0 0 0 0 0 0 0 0 0 0 0 0 0 0 0 0 0 0 0 0 0 0 0 0 0 0
0 0 0 0 0 0 0 0 0 0 0 0 0 0 0 0 0 0 0 0 0 0 0 0 0 0 0 0 0 0 0 -0 -0 0 0 0 0 0 0 0 0 0 0 0 0 0 0
0 0 0 0 0 0 0 0 0 0 -0 0 0 0 0 0 0 0 0 0 0 0 0 0 0 0 -0 0 0 0 0 0 -0 0 0 0 0 0 0 0 0 0 0 0 0 0 0
0 0 0 0 0 0 0 0 0 -0 -0 -0 0 0 0 0 0 0 0 0 0 -0 -0 -0 0 0 0 0 0 0 -0 0 0 0 0 0 0 0 0 0 0 0 0 0 0 0 0
0 0 0 0 0 0 0 0 -0 -0 0 0 0 0 0 0 0 0 0 0 0 -0 -0 0 0 0 0 0 0 0 0 0 0 0 0 0 0 0 0 0 0 0 0 0 0 0 0
0 0 0 0 0 0 0 0 -0 -0 -0 -0 0 0 0 0 0 0 0 0 0 0 0 0 0 0 0 0 0 0 0 0 0 0 0 0 0 0 0 0 0 0 0 0 0 0 0
0 0 0 0 0 0 0 0 0 -0 -0 0 0 0 0 0 0 0 0 0 0 0 0 0 0 0 0 0 0 0 0 0 0 0 0 0 0 0 0 0 0 0 0 0 0 0 0
0 0 0 0 0 0 0 0 0 -0 -0 0 0 0 0 0 0 0 0 0 0 0 0 0 0 0 0 0 0 0 0 0 0 0 0 0 0 0 0 0 0 0 0 0 0 0 0
0 0 0 0 0 0 0 0 0 0 0 0 0 0 0 0 0 0 0 0 0 0 0 0 0 0 0 0 0 0 0 0 0 0 0 0 0 0 0 0 0 0 0 0 0 0 0
0 0 0 0 0 0 0 0 0 0 0 0 0 0 0 0 0 0 0 0 0 0 0 0 0 0 0 0 0 0 0 0 0 0 0 0 0 0 0 0 0 0 0 0 0 0 0
0 0 0 0 0 0 0 0 0 0 0 0 0 0 0 0 0 0 0 0 0 0 0 0 0 0 0 0 0 0 0 0 0 0 0 0 0 0 0 0 0 0 0 0 0 0 0
0 0 0 0 0 0 0 0 0 0 0 0 0 0 0 0 0 0 0 0 0 0 0 0 0 0 0 0 0 0 0 0 0 0 0 0 0 0 0 0 0 0 0 0 0 0 0
0 0 0 0 0 0 0 0 0 0 0 0 0 0 0 0 0 0 0 0 0 0 0 0 0 0 0 0 0 0 0 0 0 0 0 0 0 0 0 0 0 0 0 0 0 0 0
0 0 0 0 0 0 0 0 0 0 0 0 0 0 0 0 0 0 0 0 0 0 0 0 0 0 0 0 0 0 0 0 0 0 0 0 0 0 0 0 0 0 0 0 0 0 0
0 0 0 0 0 0 0 0 0 0 0 0 0 0 0 0 0 0 0 0 0 0 0 0 0 0 0 0 0 0 0 0 0 0 0 0 0 0 0 0 0 0 0 0 0 0 0
Wind_Speed_500mb
37 37 38 38 38 38 38 38 39 40 40 40 40 38 37 35 34 32 31 27 22 18 12 14 17 21 23 10 6 5 10 3 16 14 9 14 9 5 4 5 5 8 9 3 15 14 20
38 38 39 39 40 40 40 40 41 42 43 43 42 41 39 37 35 33 30 28 22 16 11 13 18 21 20 9 3 6 8 3 9 12 16 14 5 3 3 4 8 8 12 9 25 33 25
39 40 40 42 43 43 44 45 45 45 45 46 45 44 42 39 36 33 30 28 21 15 14 14 19 21 29 20 5 5 3 7 10 10 6 2 6 4 2 3 3 3 10 15 10 10 16
39 41 42 44 46 47 47 48 49 49 50 49 49 46 44 42 39 34 30 28 20 15 16 18 20 22 17 9 11 12 7 8 4 3 4 10 8 9 5 4 9 8 11 10 9 6 9
42 43 45 46 48 49 51 51 51 51 52 53 52 50 46 42 41 36 31 27 20 16 18 19 19 14 17 9 19 13 14 10 2 10 10 11 13 2 1 8 9 11 5 5 3 7 5
44 46 47 49 50 51 52 53 54 54 53 53 53 52 49 44 41 37 31 24 19 16 19 19 22 12 15 3 7 12 16 16 12 11 5 3 3 7 8 8 7 4 1 7 5 5 13
48 49 49 49 51 53 54 53 54 55 55 54 54 52 51 46 41 35 28 16 11 8 14 18 7 26 40 24 15 8 16 18 12 3 5 6 8 10 18 13 6 4 6 13 4 5 13
49 50 50 51 51 52 54 54 55 54 55 55 55 54 50 46 40 33 15 2 4 8 18 30 38 43 42 35 13 8 6 13 10 8 6 10 9 14 10 7 5 6 15 10 11 11 15
46 48 51 52 51 53 54 54 55 56 53 54 55 54 51 43 39 14 11 7 1 16 8 20 30 35 32 22 15 21 17 16 7 9 9 11 10 10 6 4 11 4 11 13 12 16 21
47 48 48 51 53 53 55 56 56 56 56 53 53 53 51 44 21 14 4 7 15 4 7 13 9 14 22 17 8 16 23 17 3 16 10 10 8 7 6 6 11 6 10 19 28 8 10
48 49 51 51 53 54 55 58 59 57 57 55 52 50 48 42 38 22 10 13 6 7 5 6 7 7 28 23 6 14 27 25 14 9 8 10 7 8 9 5 9 8 14 13 8 8 11
47 47 50 53 54 56 58 58 59 59 58 57 52 49 50 41 35 15 14 5 19 11 12 7 11 11 10 10 4 7 10 19 4 5 2 10 6 1 8 6 1 15 12 13 10 6 3
47 48 48 51 54 56 60 62 62 61 60 60 54 46 47 41 26 9 5 15 9 7 9 5 6 8 6 8 4 6 10 10 10 7 4 10 7 6 7 13 11 13 13 6 7 8 10
47 48 50 50 53 57 60 63 65 65 63 62 55 48 39 32 25 24 14 7 8 7 11 10 6 4 15 10 9 4 8 7 3 10 6 7 8 3 3 5 13 7 11 10 7 5 7
45 48 50 52 53 55 60 63 66 68 66 65 55 44 22 12 22 29 16 7 15 12 6 11 13 7 6 7 8 7 13 14 16 15 12 8 3 6 11 5 6 5 7 7 13 6 5
46 47 49 52 55 57 59 62 67 69 64 66 58 39 4 6 14 36 7 13 10 8 7 6 4 5 15 10 11 11 13 8 11 19 6 14 8 3 4 3 21 7 10 8 7 3 5
48 49 50 52 54 57 59 62 64 70 65 57 41 16 17 14 30 12 7 12 9 13 8 5 3 9 11 12 16 11 14 6 10 9 9 10 9 7 2 6 10 5 5 13 10 8 10
46 48 51 53 55 56 59 61 62 65 69 54 24 5 6 19 3 3 5 9 4 6 4 10 6 16 11 10 7 12 20 11 6 19 17 4 11 7 3 9 5 4 9 10 10 8 2
47 48 50 52 54 56 57 59 59 59 61 56 38 13 6 12 3 3 8 7 7 5 8 9 10 12 6 10 9 6 5 3 7 10 19 15 4 7 13 12 7 6 6 10 10 6 10
47 48 49 50 54 54 56 58 57 56 53 40 17 8 9 10 11 4 7 8 9 9 11 9 12 6 3 4 9 10 6 7 3 7 21 16 8 13 14 11 8 6 7 9 10 7 7
44 46 47 48 48 53 54 55 56 53 48 28 18 5 8 8 8 10 5 6 8 10 8 7 5 10 12 7 5 6 5 3 8 3 9 9 9 6 2 7 6 6 8 11 13 11 12
46 46 46 46 47 47 50 53 54 53 45 17 16 15 19 10 20 9 8 5 4 12 6 8 5 4 8 12 14 17 12 7 11 8 7 7 4 5 4 1 4 4 12 13 12 7 10
43 45 44 46 46 46 44 46 47 50 47 20 23 13 9 13 12 5 5 8 7 11 13 27 16 7 5 7 10 8 15 17 11 16 7 8 12 7 5 5 8 9 12 8 7 7 10
40 40 42 43 43 43 42 39 39 40 40 33 26 18 11 8 6 5 11 15 15 13 10 28 33 5 10 18 31 29 36 35 29 20 9 12 9 6 6 6 3 13 7 13 9 5 9
39 38 38 39 40 41 40 38 33 31 30 25 17 14 8 8 15 18 21 10 31 26 9 13 16 20 19 4 7 10 9 8 8 15 12 8 11 7 9 6 9 13 6 8 10 10 9
37 37 36 36 37 37 38 36 32 26 25 20 7 13 8 11 7 13 14 20 6 8 11 11 12 22 2 6 6 7 9 11 6 5 11 13 13 10 6 7 10 13 7 8 9 10 14
38 38 37 36 34 34 34 32 30 29 24 21 2 10 9 11 16 9 7 8 11 6 6 13 27 14 9 5 5 4 7 9 11 17 10 7 7 11 6 5 12 15 11 5 8 14 19
38 39 39 37 35 34 32 30 29 28 24 21 15 13 10 13 41 48 37 19 16 10 4 19 16 6 7 4 9 8 5 9 6 10 14 14 13 7 6 7 10 15 12 12 12 9 25
40 40 39 38 35 34 32 29 27 25 23 20 24 13 21 26 32 45 62 64 48 34 19 11 9 12 3 1 2 4 7 4 9 7 4 5 13 12 15 13 10 28 10 17 16 14 27
Wind_Direction_500mb
17 16 14 12 9 6 3 1 358 356 353 351 348 348 346 346 345 345 343 336 328 324 320 325 328 327 335 310 275 322 319 286 201 205 177 141 140 119 129 186 169 188 261 172 276 145 122
10 8 6 4 1 359 356 355 353 351 350 346 343 342 341 340 338 338 337 333 325 318 309 319 323 320 321 300 285 313 3 102 162 166 161 167 136 317 241 211 167 217 341 114 100 101 111
3 1 359 356 353 352 351 349 347 346 345 344 343 338 336 335 333 331 331 327 317 305 299 308 315 312 301 255 244 219 179 116 119 105 117 230 293 268 188 243 258 285 78 47 16 71 115
356 354 352 350 347 346 346 345 343 342 341 340 340 339 335 331 329 326 327 319 310 287 287 298 308 308 272 228 217 208 221 213 204 235 263 310 332 276 215 331 1 54 72 106 262 204 152
348 347 346 345 343 342 340 340 340 339 338 338 336 337 336 331 326 323 324 315 304 271 273 284 295 296 272 244 245 225 208 213 149 325 287 292 290 296 23 88 15 10 169 118 166 213 90
343 342 341 341 339 338 338 337 336 336 335 335 333 333 334 332 325 322 322 314 302 264 259 271 268 289 249 77 325 234 218 233 255 315 152 215 149 60 29 79 204 214 8 83 99 66 39
338 338 337 337 336 335 335 335 334 333 333 332 331 330 331 331 326 323 320 312 295 282 246 224 255 264 284 294 334 194 240 237 233 231 111 30 72 220 218 203 154 141 101 94 42 331 70
337 336 336 335 335 334 334 333 331 332 332 331 329 327 328 329 326 323 327 5 69 348 298 268 261 262 260 275 294 229 225 184 164 186 102 19 235 227 204 197 169 173 120 117 49 92 87
339 338 337 335 335 334 332 331 331 331 331 329 327 326 325 327 327 322 336 160 244 302 257 282 243 236 243 236 222 239 202 188 143 147 185 172 226 108 167 171 134 94 157 166 138 100 67
342 340 340 337 336 335 333 331 331 331 330 329 326 325 323 326 326 328 316 176 330 178 43 275 233 227 192 181 255 242 212 179 161 202 186 225 268 164 168 122 122 119 122 132 145 122 167
343 343 341 340 338 336 334 333 331 330 329 327 325 324 319 318 305 307 255 293 293 139 339 244 205 188 170 169 160 190 191 190 163 186 111 261 333 150 110 193 136 161 131 139 132 103 108
342 343 343 341 339 337 335 334 331 330 328 326 322 322 311 309 299 289 231 260 147 46 252 319 160 158 133 185 181 117 154 200 185 128 309 246 306 136 141 73 111 137 87 57 58 88 52
342 342 344 342 339 338 336 335 333 330 328 326 320 317 305 293 283 239 219 165 52 157 320 330 218 153 151 164 232 156 148 157 149 105 322 11 346 329 107 76 28 74 59 355 349 11 216
344 344 342 343 342 339 338 336 335 331 331 329 321 317 304 284 258 224 208 68 173 231 257 296 1 90 172 159 235 161 105 147 133 101 100 132 352 20 359 142 157 57 134 148 222 214 269
347 347 345 343 343 343 341 339 338 334 334 333 325 325 308 265 220 194 180 130 202 205 272 341 330 134 213 207 181 138 187 190 199 168 144 134 52 338 39 101 100 181 67 152 105 23 52
348 349 347 346 345 346 345 344 342 337 337 338 333 330 27 212 198 179 104 216 211 224 353 9 281 177 185 197 155 156 179 202 199 186 163 196 105 53 194 89 41 123 148 70 19 161 272
349 349 349 349 348 347 348 347 347 340 339 343 337 340 352 143 143 187 176 222 239 253 354 345 294 304 212 172 175 181 201 253 181 132 96 129 105 249 63 32 172 54 65 52 110 123 175
346 346 347 349 348 349 350 350 351 347 340 347 353 351 21 171 76 43 169 203 223 247 334 261 240 213 232 165 142 194 203 203 137 150 143 117 124 121 175 301 241 124 147 132 120 227 125
340 342 343 345 347 347 350 352 354 353 349 345 337 300 17 194 156 278 297 277 244 247 215 233 250 200 209 169 116 147 156 353 186 133 157 179 48 71 358 354 354 117 123 102 103 84 194
332 334 337 340 343 346 347 351 355 356 352 348 350 347 348 63 48 80 19 318 297 300 249 255 255 242 255 149 34 156 135 359 83 100 115 111 112 151 180 194 160 160 154 130 119 110 194
328 329 333 336 339 341 345 348 353 359 357 357 4 22 0 326 355 350 325 350 331 322 328 285 234 208 186 139 86 125 126 125 46 120 66 98 115 104 101 143 144 188 212 170 185 199 169
333 335 336 338 339 340 342 347 352 357 6 15 17 5 344 292 316 331 345 26 356 321 281 291 317 281 191 153 180 192 149 184 175 34 69 17 127 116 110 87 81 280 265 236 217 190 246
331 334 336 339 341 341 342 345 353 357 5 29 11 347 335 309 337 6 354 323 301 355 267 257 315 277 176 245 217 260 159 151 172 139 119 90 127 97 198 17 45 334 250 246 245 194 160
326 328 331 334 338 341 343 345 351 360 3 5 9 6 352 293 338 346 335 301 288 311 271 299 324 305 5 98 102 101 79 75 73 48 85 118 96 83 141 46 195 237 235 235 227 263 203
326 328 327 329 332 337 340 344 345 353 356 3 16 13 357 298 317 304 348 309 319 315 258 262 298 333 326 319 73 68 1 52 42 33 29 74 113 82 130 175 286 305 184 155 187 260 203
326 326 327 328 327 332 336 340 341 343 346 356 339 352 323 310 261 321 320 308 308 322 313 279 299 322 345 78 52 130 177 157 190 42 37 59 68 108 143 143 205 238 269 231 105 294 186
320 323 325 326 327 328 332 337 340 337 343 344 276 328 310 276 282 299 278 300 321 336 263 306 337 331 21 132 96 178 234 175 155 162 167 76 40 141 135 174 286 246 209 107 95 236 184
311 316 318 319 319 322 324 328 331 331 331 334 313 269 304 271 278 275 265 267 293 306 328 325 339 338 336 93 154 195 212 226 111 161 171 155 144 165 100 88 275 183 105 173 206 191 196
301 307 310 313 310 312 317 318 324 328 331 329 320 281 281 272 268 282 282 275 262 250 286 303 280 279 298 279 288 112 184 189 151 198 32 166 174 176 168 206 220 191 207 214 196 175 190
Wind_Speed_850mb
37 37 38 38 38 38 38 38 39 40 40 40 40 38 37 35 34 32 31 27 22 18 12 14 17 21 23 10 6 5 10 3 16 14 9 14 9 5 4 5 5 8 9 3 15 14 20
38 38 39 39 40 40 40 40 41 42 43 43 42 41 39 37 35 33 30 28 22 16 11 13 18 21 20 9 3 6 8 3 9 12 16 14 5 3 3 4 8 8 12 9 25 33 25
39 40 40 42 43 43 44 45 45 45 45 46 45 44 42 39 36 33 30 28 21 15 14 14 19 21 29 20 5 5 3 7 10 10 6 2 6 4 2 3 3 3 10 15 10 10 16
39 41 42 44 46 47 47 48 49 49 50 49 49 46 44 42 39 34 30 28 20 15 16 18 20 22 17 9 11 12 7 8 4 3 4 10 8 9 5 4 9 8 11 10 9 6 9
42 43 45 46 48 49 51 51 51 51 52 53 52 50 46 42 41 36 31 27 20 16 18 19 19 14 17 9 19 13 14 10 2 10 10 11 13 2 1 8 9 11 5 5 3 7 5
44 46 47 49 50 51 52 53 54 54 53 53 53 52 49 44 41 37 31 24 19 16 19 19 22 12 15 3 7 12 16 16 12 11 5 3 3 7 8 8 7 4 1 7 5 5 13
48 49 49 49 51 53 54 53 54 55 55 54 54 52 51 46 41 35 28 16 11 8 14 18 7 26 40 24 15 8 16 18 12 3 5 6 8 10 18 13 6 4 6 13 4 5 13
49 50 50 51 51 52 54 54 55 54 55 55 55 54 50 46 40 33 15 2 4 8 18 30 38 43 42 35 13 8 6 13 10 8 6 10 9 14 10 7 5 6 15 10 11 11 15
46 48 51 52 51 53 54 54 55 56 53 54 55 54 51 43 39 14 11 7 1 16 8 20 30 35 32 22 15 21 17 16 7 9 9 11 10 10 6 4 11 4 11 13 12 16 21
47 48 48 51 53 53 55 56 56 56 56 53 53 53 51 44 21 14 4 7 15 4 7 13 9 14 22 17 8 16 23 17 3 16 10 10 8 7 6 6 11 6 10 19 28 8 10
48 49 51 51 53 54 55 58 59 57 57 55 52 50 48 42 38 22 10 13 6 7 5 6 7 7 28 23 6 14 27 25 14 9 8 10 7 8 9 5 9 8 14 13 8 8 11
47 47 50 53 54 56 58 58 59 59 58 57 52 49 50 41 35 15 14 5 19 11 12 7 11 11 10 10 4 7 10 19 4 5 2 10 6 1 8 6 1 15 12 13 10 6 3
47 48 48 51 54 56 60 62 62 61 60 60 54 46 47 41 26 9 5 15 9 7 9 5 6 8 6 8 4 6 10 10 10 7 4 10 7 6 7 13 11 13 13 6 7 8 10
47 48 50 50 53 57 60 63 65 65 63 62 55 48 39 32 25 24 14 7 8 7 11 10 6 4 15 10 9 4 8 7 3 10 6 7 8 3 3 5 13 7 11 10 7 5 7
45 48 50 52 53 55 60 63 66 68 66 65 55 44 22 12 22 29 16 7 15 12 6 11 13 7 6 7 8 7 13 14 16 15 12 8 3 6 11 5 6 5 7 7 13 6 5
46 47 49 52 55 57 59 62 67 69 64 66 58 39 4 6 14 36 7 13 10 8 7 6 4 5 15 10 11 11 13 8 11 19 6 14 8 3 4 3 21 7 10 8 7 3 5
48 49 50 52 54 57 59 62 64 70 65 57 41 16 17 14 30 12 7 12 9 13 8 5 3 9 11 12 16 11 14 6 10 9 9 10 9 7 2 6 10 5 5 13 10 8 10
46 48 51 53 55 56 59 61 62 65 69 54 24 5 6 19 3 3 5 9 4 6 4 10 6 16 11 10 7 12 20 11 6 19 17 4 11 7 3 9 5 4 9 10 10 8 2
47 48 50 52 54 56 57 59 59 59 61 56 38 13 6 12 3 3 8 7 7 5 8 9 10 12 6 10 9 6 5 3 7 10 19 15 4 7 13 12 7 6 6 10 10 6 10
47 48 49 50 54 54 56 58 57 56 53 40 17 8 9 10 11 4 7 8 9 9 11 9 12 6 3 4 9 10 6 7 3 7 21 16 8 13 14 11 8 6 7 9 10 7 7
44 46 47 48 48 53 54 55 56 53 48 28 18 5 8 8 8 10 5 6 8 10 8 7 5 10 12 7 5 6 5 3 8 3 9 9 9 6 2 7 6 6 8 11 13 11 12
46 46 46 46 47 47 50 53 54 53 45 17 16 15 19 10 20 9 8 5 4 12 6 8 5 4 8 12 14 17 12 7 11 8 7 7 4 5 4 1 4 4 12 13 12 7 10
43 45 44 46 46 46 44 46 47 50 47 20 23 13 9 13 12 5 5 8 7 11 13 27 16 7 5 7 10 8 15 17 11 16 7 8 12 7 5 5 8 9 12 8 7 7 10
40 40 42 43 43 43 42 39 39 40 40 33 26 18 11 8 6 5 11 15 15 13 10 28 33 5 10 18 31 29 36 35 29 20 9 12 9 6 6 6 3 13 7 13 9 5 9
39 38 38 39 40 41 40 38 33 31 30 25 17 14 8 8 15 18 21 10 31 26 9 13 16 20 19 4 7 10 9 8 8 15 12 8 11 7 9 6 9 13 6 8 10 10 9
37 37 36 36 37 37 38 36 32 26 25 20 7 13 8 11 7 13 14 20 6 8 11 11 12 22 2 6 6 7 9 11 6 5 11 13 13 10 6 7 10 13 7 8 9 10 14
38 38 37 36 34 34 34 32 30 29 24 21 2 10 9 11 16 9 7 8 11 6 6 13 27 14 9 5 5 4 7 9 11 17 10 7 7 11 6 5 12 15 11 5 8 14 19
38 39 39 37 35 34 32 30 29 28 24 21 15 13 10 13 41 48 37 19 16 10 4 19 16 6 7 4 9 8 5 9 6 10 14 14 13 7 6 7 10 15 12 12 12 9 25
40 40 39 38 35 34 32 29 27 25 23 20 24 13 21 26 32 45 62 64 48 34 19 11 9 12 3 1 2 4 7 4 9 7 4 5 13 12 15 13 10 28 10 17 16 14 27
Wind_Direction_850mb
17 16 14 12 9 6 3 1 358 356 353 351 348 348 346 346 345 345 343 336 328 324 320 325 328 327 335 310 275 322 319 286 201 205 177 141 140 119 129 186 169 188 261 172 276 145 122
10 8 6 4 1 359 356 355 353 351 350 346 343 342 341 340 338 338 337 333 325 318 309 319 323 320 321 300 285 313 3 102 162 166 161 167 136 317 241 211 167 217 341 114 100 101 111
3 1 359 356 353 352 351 349 347 346 345 344 343 338 336 335 333 331 331 327 317 305 299 308 315 312 301 255 244 219 179 116 119 105 117 230 293 268 188 243 258 285 78 47 16 71 115
356 354 352 350 347 346 346 345 343 342 341 340 340 339 335 331 329 326 327 319 310 287 287 298 308 308 272 228 217 208 221 213 204 235 263 310 332 276 215 331 1 54 72 106 262 204 152
348 347 346 345 343 342 340 340 340 339 338 338 336 337 336 331 326 323 324 315 304 271 273 284 295 296 272 244 245 225 208 213 149 325 287 292 290 296 23 88 15 10 169 118 166 213 90
343 342 341 341 339 338 338 337 336 336 335 335 333 333 334 332 325 322 322 314 302 264 259 271 268 289 249 77 325 234 218 233 255 315 152 215 149 60 29 79 204 214 8 83 99 66 39
338 338 337 337 336 335 335 335 334 333 333 332 331 330 331 331 326 323 320 312 295 282 246 224 255 264 284 294 334 194 240 237 233 231 111 30 72 220 218 203 154 141 101 94 42 331 70
337 336 336 335 335 334 334 333 331 332 332 331 329 327 328 329 326 323 327 5 69 348 298 268 261 262 260 275 294 229 225 184 164 186 102 19 235 227 204 197 169 173 120 117 49 92 87
339 338 337 335 335 334 332 331 331 331 331 329 327 326 325 327 327 322 336 160 244 302 257 282 243 236 243 236 222 239 202 188 143 147 185 172 226 108 167 171 134 94 157 166 138 100 67
342 340 340 337 336 335 333 331 331 331 330 329 326 325 323 326 326 328 316 176 330 178 43 275 233 227 192 181 255 242 212 179 161 202 186 225 268 164 168 122 122 119 122 132 145 122 167
343 343 341 340 338 336 334 333 331 330 329 327 325 324 319 318 305 307 255 293 293 139 339 244 205 188 170 169 160 190 191 190 163 186 111 261 333 150 110 193 136 161 131 139 132 103 108
342 343 343 341 339 337 335 334 331 330 328 326 322 322 311 309 299 289 231 260 147 46 252 319 160 158 133 185 181 117 154 200 185 128 309 246 306 136 141 73 111 137 87 57 58 88 52
342 342 344 342 339 338 336 335 333 330 328 326 320 317 305 293 283 239 219 165 52 157 320 330 218 153 151 164 232 156 148 157 149 105 322 11 346 329 107 76 28 74 59 355 349 11 216
344 344 342 343 342 339 338 336 335 331 331 329 321 317 304 284 258 224 208 68 173 231 257 296 1 90 172 159 235 161 105 147 133 101 100 132 352 20 359 142 157 57 134 148 222 214 269
347 347 345 343 343 343 341 339 338 334 334 333 325 325 308 265 220 194 180 130 202 205 272 341 330 134 213 207 181 138 187 190 199 168 144 134 52 338 39 101 100 181 67 152 105 23 52
348 349 347 346 345 346 345 344 342 337 337 338 333 330 27 212 198 179 104 216 211 224 353 9 281 177 185 197 155 156 179 202 199 186 163 196 105 53 194 89 41 123 148 70 19 161 272
349 349 349 349 348 347 348 347 347 340 339 343 337 340 352 143 143 187 176 222 239 253 354 345 294 304 212 172 175 181 201 253 181 132 96 129 105 249 63 32 172 54 65 52 110 123 175
346 346 347 349 348 349 350 350 351 347 340 347 353 351 21 171 76 43 169 203 223 247 334 261 240 213 232 165 142 194 203 203 137 150 143 117 124 121 175 301 241 124 147 132 120 227 125
340 342 343 345 347 347 350 352 354 353 349 345 337 300 17 194 156 278 297 277 244 247 215 233 250 200 209 169 116 147 156 353 186 133 157 179 48 71 358 354 354 117 123 102 103 84 194
332 334 337 340 343 346 347 351 355 356 352 348 350 347 348 63 48 80 19 318 297 300 249 255 255 242 255 149 34 156 135 359 83 100 115 111 112 151 180 194 160 160 154 130 119 110 194
328 329 333 336 339 341 345 348 353 359 357 357 4 22 0 326 355 350 325 350 331 322 328 285 234 208 186 139 86 125 126 125 46 120 66 98 115 104 101 143 144 188 212 170 185 199 169
333 335 336 338 339 340 342 347 352 357 6 15 17 5 344 292 316 331 345 26 356 321 281 291 317 281 191 153 180 192 149 184 175 34 69 17 127 116 110 87 81 280 265 236 217 190 246
331 334 336 339 341 341 342 345 353 357 5 29 11 347 335 309 337 6 354 323 301 355 267 257 315 277 176 245 217 260 159 151 172 139 119 90 127 97 198 17 45 334 250 246 245 194 160
326 328 331 334 338 341 343 345 351 360 3 5 9 6 352 293 338 346 335 301 288 311 271 299 324 305 5 98 102 101 79 75 73 48 85 118 96 83 141 46 195 237 235 235 227 263 203
326 328 327 329 332 337 340 344 345 353 356 3 16 13 357 298 317 304 348 309 319 315 258 262 298 333 326 319 73 68 1 52 42 33 29 74 113 82 130 175 286 305 184 155 187 260 203
326 326 327 328 327 332 336 340 341 343 346 356 339 352 323 310 261 321 320 308 308 322 313 279 299 322 345 78 52 130 177 157 190 42 37 59 68 108 143 143 205 238 269 231 105 294 186
320 323 325 326 327 328 332 337 340 337 343 344 276 328 310 276 282 299 278 300 321 336 263 306 337 331 21 132 96 178 234 175 155 162 167 76 40 141 135 174 286 246 209 107 95 236 184
311 316 318 319 319 322 324 328 331 331 331 334 313 269 304 271 278 275 265 267 293 306 328 325 339 338 336 93 154 195 212 226 111 161 171 155 144 165 100 88 275 183 105 173 206 191 196
301 307 310 313 310 312 317 318 324 328 331 329 320 281 281 272 268 282 282 275 262 250 286 303 280 279 298 279 288 112 184 189 151 198 32 166 174 176 168 206 220 191 207 214 196 175 190